Flag for South Africa Weather past 2 weeks in Pretoria, South Africa

Now
84 °F

Pleasantly warm.


Feels Like: 82 °F
Forecast: 63 / 84 °F
Wind: 8 mph from Southwest

Location: Waterkloof Lmb

Current Time: Mar 5, 2015 at 2:34:09 PM

Latest Report: Mar 5, 2015 at 1:00 PM


Visibility: N/A

Pressure: 30.15 "Hg

Humidity: 25%

Dew point: 45 °F

Location of PretoriaLocation

Historic Weather in Pretoria — Graph

°F

Pretoria temperature yesterday

Maximum temperature yesterday: 81 °F (at 3:00 PM)
Minimum temperature yesterday: 55 °F (at 5:00 AM)
Average temperature yesterday: 68 °F

Past Weeks' High & Low Weather Summary

 TemperatureHumidityPressure
High88 °F (Feb 19, 4:00 PM)94% (Feb 25, 6:00 AM)30.48 "Hg (Feb 25, 6:00 AM)
Low54 °F (Mar 3, 4:00 AM)22% (Feb 22, 4:00 PM)29.98 "Hg (Mar 1, 3:00 PM)
Average70 °F55%30.18 "Hg
* Reported Feb 18 1:00 PM — Mar 5 1:00 PM, Pretoria, Weather by CustomWeather, © 2015

Note: Actual official high and low records may vary slightly from our data, if they occured in-between our weather recording intervals... More about our weather records

Advertising

Pretoria weather history for previous 24 hours

 ConditionsComfort  
Time TempWeatherWind HumidityBarometerVisibility
1:00 PM
Thu, Mar 5
82 °FPleasantly warm.6 mph26%30.18 "HgN/A
12:00 PM82 °FPleasantly warm.3 mph28%30.21 "HgN/A
11:00 AM75 °FSunny.12 mphN/A30.27 "Hg10 mi
10:00 AM73 °FSunny.6 mphN/A30.30 "Hg10 mi
9:00 AM72 °FMild.6 mph41%30.24 "HgN/A
8:00 AM66 °FMild.3 mph49%30.24 "HgN/A
7:00 AM63 °FMild.3 mph56%30.21 "HgN/A
6:00 AM59 °FRefreshingly cool.6 mph59%30.18 "HgN/A
5:00 AM61 °FRefreshingly cool.5 mph55%30.18 "HgN/A
4:00 AM61 °FRefreshingly cool.3 mph52%30.18 "HgN/A
3:00 AM59 °FRefreshingly cool.3 mph55%30.15 "HgN/A
2:00 AM63 °FMild.5 mph49%30.18 "HgN/A
1:00 AM64 °FMild.8 mph43%30.18 "HgN/A
12:00 AM66 °FMild.6 mph37%30.18 "HgN/A
11:00 PM
Wed, Mar 4
66 °FMild.5 mph40%30.21 "HgN/A
10:00 PM68 °FMild.5 mph35%30.21 "HgN/A
9:00 PM68 °FMild.6 mph35%30.21 "HgN/A
8:00 PM70 °FMild.3 mph35%30.18 "HgN/A
7:00 PM72 °FMild.7 mph33%30.18 "HgN/A
6:00 PM77 °FPleasantly warm.8 mph26%30.15 "HgN/A
5:00 PM79 °FPleasantly warm.7 mph24%30.15 "HgN/A
4:00 PM81 °FPleasantly warm.5 mph24%30.15 "HgN/A
3:00 PM81 °FPleasantly warm.6 mph24%30.18 "HgN/A
2:00 PM79 °FPassing clouds.6 mphN/A30.27 "HgN/A
Weather by CustomWeather, © 2015

See weather overviewHow to use our weather pages